Voltar ao catálogo

YAOGAN-43 02B

AtivoMilitarVLEO
NORAD 60946·PAYLOAD·🇨🇳 China

Lançado Sep 3, 2024 de Xichang Satellite Launch Center

Loading…

Próximas Passagens (próximas 24 horas)

TLE

AtualizadoSource: Space-Track

Época: Sep 14, 2026, 14:16 UTC

1 60946U 24156B   26257.59448183  .00008626  00000-0  35955-3 0  9999
2 60946  34.9967 355.7113 0000713 254.6099 105.4537 15.22967905113080

Acompanhe YAOGAN-43 02B em tempo real com AllMySat

Download on the App Store